Location: Ostrava
(49.8330°N, 18.2830°E)
Time: 00:23:55
(UTC+01:00)

Vanguard 2 Rocket - Visible Passes

Search period start: 12 February 2016 00:00
Search period end: 22 February 2016 00:00
Orbit: 554 x 3329 km, 32.9° (Epoch: 10 February)

Date Brightness Start Highest point End Pass type
(mag) Time Alt. Az. Time Alt. Az. Time Alt. Az.
12 Feb 9.1 05:09:43 10° SW 05:15:04 24° SSE 05:22:54 10° ESE visible
13 Feb 8.9 04:13:57 15° S 04:16:18 18° SSE 04:21:37 10° ESE visible
13 Feb 9.2 06:22:24 10° SW 06:28:39 26° S 06:38:06 10° SE visible
14 Feb 9.3 03:18:14 11° SE 03:18:14 11° SE 03:19:40 10° SE visible
14 Feb 9.0 05:24:23 10° SW 05:29:33 23° S 05:37:08 10° SE visible
15 Feb 8.7 04:28:22 16° S 04:30:43 19° SSE 04:36:14 10° SE visible
16 Feb 9.1 03:32:39 13° SSE 03:32:39 13° SSE 03:35:12 10° SE visible
16 Feb 9.0 05:39:19 10° SW 05:44:09 21° S 05:51:01 10° SE visible
17 Feb 8.7 04:42:47 15° SSW 04:45:16 18° S 04:50:28 10° SE visible
18 Feb 8.9 03:47:03 14° SSE 03:47:03 14° SSE 03:49:56 10° SE visible
18 Feb 9.0 05:54:39 10° SW 05:58:49 17° S 06:04:24 10° SSE visible
19 Feb 8.7 04:57:11 12° SSW 04:59:54 16° S 05:04:16 10° SE visible
20 Feb 8.8 04:01:28 14° S 04:01:28 14° S 04:04:09 10° SE visible
20 Feb 9.2 06:10:51 10° SSW 06:13:32 12° S 06:16:42 10° SSE visible
21 Feb 8.9 05:12:21 10° SSW 05:14:36 12° S 05:17:13 10° SSE visible
